Codice Fondo Data Valore Var%*
FR0010149120 Carmignac Sécurité Fund Class A EUR acc 22/10/2021 1.806,67 € 0,01
FR0010149161 Carmignac Court Terme Fund Class A EUR acc 22/10/2021 3.680,14 € 0,00
FR0010149302 Carmignac Emergents Fund Class A EUR acc 22/10/2021 1.342,52 € -0,42
LU0128494944 Pictet-Short-Term Money Market EUR I 22/10/2021 136,98 € -0,01
LU0128499158 Pictet-Short-Term Money Market CHF I 22/10/2021 111,16 € 0,07
LU0198728585 Threadneedle (Lux) Global Focus AEH Eur 22/10/2021 66,81 € -0,15
LU0386875149 Pictet-Global Megatrend Selection I EUR 22/10/2021 404,65 € 0,85
LU0231477265 ABERDEEN GLOBAL ASIA PACIFIC EQUITY "I2" ACC 22/10/2021 110,61 € 0,42
LU0396318908 ABERDEEN GLOBAL EMERGING MARKETS LOCAL CURRENCY BOND "I" ACC 22/10/2021 8,76 € -0,45
LU0568614837 AMUNDI CONVERTIBLE EUROPE "ME" (EUR) ACC 22/10/2021 133,39 € -0,01
LU0300874459 AVIVA INVESTORS EMERGING MARKETS EQUITY SMALL CAP "I" ACC 22/10/2021 214,18 € -0,56
LU0367993663 AVIVA INVESTORS GLOBAL HIGH YIELD BOND "I" ACC 22/10/2021 232,51 € -0,25
LU0658025209 AXA IM FIIS EUROPE SHORT DURATION HIGH YIELD "A" (EUR) ACC 22/10/2021 142,82 € 0,01
LU0194345913 AXA IM FIIS US SHORT DURATION HIGH YIELD "A" (EURHDG) ACC 22/10/2021 180,05 € -0,05
IE00B03Z0W36 AXA ROSENBERG JAPAN ENHANCED INDEX EQUITY ALPHA "A" ACC 22/10/2021 13,47 € 0,22
IE00BZ01QS72 AXA ROSENBERG US ENHANCED INDEX EQUITY ALPHA 22/10/2021 18,58 € -0,85
IE00B51NDF83 AXA ROSENBERG US SMALL CAP ALPHA 22/10/2021 17,19 € -0,17
LU0800573346 AXA WF EMERGING MARKETS SHORT DURATION BONDS "I" (USD) ACC 22/10/2021 117,23 € -0,22
LU0184637923 AXA WF EURO CREDIT PLUS "I" ACC 22/10/2021 187,21 € -0,02
LU0227127643 AXA WF EURO CREDIT SHORT DURATION "I" ACC 22/10/2021 137,79 € -0,01
LU0227145389 AXA WF EURO INFLATION BONDS "I" ACC 22/10/2021 154,53 € 0,43
LU0227125514 AXA WF FRAMLINGTON EUROPE REAL ESTATE SECURITIES "I" ACC 22/10/2021 339,93 € 1,00
LU0389657353 AXA WF FRAMLINGTON EUROZONE "I" ACC 22/10/2021 322,32 € 0,60
LU1105449521 AXA WF FRAMLINGTON GLOBAL CONVERTIBLES "I" (EUR) ACC 22/10/2021 146,54 € -0,19
LU0297965641 AXA WF FRAMLINGTON ITALY "I" ACC 22/10/2021 135,43 € 0,07
LU0184631991 AXA WF GLOBAL HIGH YIELD BONDS "I" (EUR HDG) ACC 22/10/2021 220,21 € -0,07
LU0746606069 AXA WF GLOBAL STRATEGIC BONDS "I" (USD) ACC 22/10/2021 128,72 € -0,09
LU0184635471 AXA WF OPTIMAL INCOME "I" ACC 22/10/2021 169,20 € 0,30
LU0960404233 AXA WF US CREDIT SHORT DURATION IG "I" (EURHDG) ACC 22/10/2021 106,47 € -0,01
LU0278457204 BGF EMERGING MARKETS LOCAL CURRENCY BOND "A2" (EUR) ACC 22/10/2021 20,57 € -0,24
LU0093502762 BGF EURO MARKETS 22/10/2021 41,08 € 1,46
LU0628612748 BGF EUROPEAN EQUITY INCOME "E2" (EUR) ACC 22/10/2021 23,48 € 1,12
LU0278453476 BGF FIXED INCOME GLOBAL OPPORTUNITIES "A2" (EUR HDG) ACC 22/10/2021 10,35 € -0,10
LU0154237225 BGF US DOLLAR SHORT DURATION BOND "A2" ACC 22/10/2021 12,18 € -0,33
LU0171301533 BGF WORLD ENERGY "A2" (EUR) ACC 22/10/2021 14,86 € -0,67
LU0055631609 BGF WORLD GOLD "A2" ACC 22/10/2021 34,75 € 2,72
LU0172157280 BGF WORLD MINING "A2" (EUR) ACC 22/10/2021 52,35 € 0,83
LU0438336421 BSF FIXED INCOME STRATEGIES "D2" (EUR) ACC 22/10/2021 128,43 € -0,27
LU0131211178 BNP Paribas Funds Euro Corporate Bond 22/10/2021 223,42 € -0,03
LU0212176118 PARVEST BOND EURO SHORT TERM "I" (EUR) ACC 22/10/2021 131,24 € -0,02
LU0823395230 PARVEST CONVERTIBLE BOND WORLD "I RH" (EUR) ACC 22/10/2021 238,63 € -0,43
LU0265343219 PARVEST EQUITY RUSSIA OPPORTUNITIES "I" (USD) ACC 22/10/2021 99,30 € -0,18
LU0823412183 PARVEST EQUITY WORLD CONSUMER DURABLES "I" (EUR) ACC 22/10/2021 422,98 € -0,24
LU0942153742 CANDRIAM BONDS EURO HIGH YIELD "R" (EUR) ACC 22/10/2021 144,73 € -0,06
LU0170291933 CANDRIAM BONDS GLOBAL HIGH YIELD "C" ACC 22/10/2021 247,92 € -0,06
LU0817813032 CAPITAL GROUP EUROPEAN GROWTH AND INCOME "Z " (EUR) ACC 22/10/2021 38,68 € 0,05
LU0164455502 CARMIGNAC COMMODITIES ACC "A EUR" ACC 22/10/2021 349,00 € -0,17
LU0251127410 FIDELITY AMERICA 22/10/2021 32,99 € 0,21
LU0936575868 FIDELITY CHINA FOCUS "Y" (EUR) ACC 22/10/2021 21,07 € -0,05
LU0115763970 FIDELITY EMERGING MARKETS "E" ACC 22/10/2021 66,84 € 0,72
LU0251130638 FIDELITY EURO BOND "A" ACC 22/10/2021 17,07 € 0,06
LU0346388613 FIDELITY GLOBAL CONSUMER INDUSTRIES "Y" 22/10/2021 55,11 € 0,46
LU0346388704 FIDELITY GLOBAL FINANCIAL SERVICES "Y" (EUR) ACC 22/10/2021 31,36 € 0,38
LU0346389348 FIDELITY GLOBAL TECHNOLOGY "Y" 22/10/2021 119,30 € -0,08
LU0251129895 FIDELITY INTERNATIONAL "A" (EUR) ACC 22/10/2021 27,04 € 0,37
LU0283901063 FIDELITY ITALY "E" ACC 22/10/2021 10,80 € 0,09
LU0261952922 FIDELITY US DOLLAR CASH "A" ACC 22/10/2021 9,73 € -0,10
LU0744129395 FRANKLIN US GOVERNMENT "I" (EURHDG) ACC 22/10/2021 10,31 € 0,00
LU0390136579 TEMPLETON ASIAN SMALLER COMPANIES "I" (EUR) ACC 22/10/2021 84,55 € -0,21
LU0329430473 GAM MULTISTOCK LUXURY BRANDS EQUITY "C" (EUR) ACC 22/10/2021 485,35 € 0,86
LU0280841296 GS GLOBAL CORESM EQUITY PORTFOLIO "I"(EUR)CLOSE ACC 22/10/2021 31,69 € -0,03
LU0234688595 GS GLOBAL CREDIT PORTFOLIO "I" (EURHDG) ACC 22/10/2021 17,14 € 0,06
LU0600009053 GS GLOBAL STRATEGIC INCOME BOND PORTFOLIO "I" (EURHDG) ACC 22/10/2021 120,29 € -0,31
LU0494455123 GS GROWTH & EMERGING MARKETS DEBT LOCAL PORTFOLIO "I" (EUR) ACC 22/10/2021 13,23 € -0,23
LU0362711326 HSBC GIF EUROLAND GROWTH "I" (EUR) ACC 22/10/2021 25,90 € 1,21
LU0570051812 HSBC GIF GEM DEBT TOTAL RETURN "L1" (EURHG) ACC 22/10/2021 10,43 € -0,10
LU0747734787 HSBC GIF GLOBAL EMERGING MARKETS BOND "I" (EURHDG) ACC 22/10/2021 18,69 € -0,05
LU0922810600 HSBC Gif Global Short Duration HY 22/10/2021 12,21 € -0,25
LU0243958047 INVESCO EURO CORPORATE BOND "C" ACC 22/10/2021 20,40 € -0,10
LU0955863419 INVESCO GLOBAL EQUITY INCOME "Z" (USD) ACC 22/10/2021 15,66 € 0,32
LU0482498093 INVESCO GLOBAL STRUCTURED EQUITY "C" (EUR HDG) ACC 22/10/2021 48,70 € 0,16
LU0119753134 INVESCO PAN EUROPEAN STRUCTURED EQ "C" ACC 22/10/2021 24,27 € 0,66
LU0386383433 INVESTEC EUROPEAN EQUITY "I" (EUR) ACC 22/10/2021 36,35 € 0,00
LU1291088513 INVESTEC GLOBAL FRANCHISE "IX" (EUR) ACC 22/10/2021 43,44 € 0,77
LU0512127977 JPM EMERGING MARKETS CORPORATE BOND "C" (USD) ACC 22/10/2021 153,13 € -0,27
LU0431993079 JPM EMERGING MARKETS OPPORTUNITIES "C" (USD) ACC 22/10/2021 478,87 € 0,57
LU0599213807 JPM EMERGING MARKETS STRATEGIC BOND "C PERF" (USD) ACC 22/10/2021 109,23 € -0,15
LU0129443577 JPM EUROPE STRATEGIC GROWTH "C" ACC 22/10/2021 49,24 € 1,44
LU0492668636 JPM FLEXIBLE CREDIT 'C' (EURHDG) ACC 22/10/2021 96,89 € -0,06
LU0079555370 JPM GLOBAL BALANCED "C" ACC 22/10/2021 1.935,09 € 0,31
LU1048171810 JPM GLOBAL HEALTHCARE "C" (EUR) ACC 22/10/2021 179,95 € 0,62
LU0782316961 JPM GLOBAL INCOME "C" (EUR) ACC 22/10/2021 170,05 € 0,16
LU0095623541 JPM GLOBAL MACRO OPPORTUNITIES "C" (EUR) ACC 22/10/2021 192,79 € 0,31
LU0289472085 JPM INCOME OPPORTUNITY "C PERF" (EUR HEDGED) ACC 22/10/2021 139,78 € 0,00
LU0129486386 JPM INDIA "C" ACC 22/10/2021 40,29 € -0,62
LU0217390573 JPM PACIFIC EQUITY "A" (EUR) ACC 22/10/2021 27,20 € 0,33
LU0672672143 JPM US SELECT EQUITY 22/10/2021 415,83 € 0,52
LU0129463179 JPM US VALUE 22/10/2021 37,36 € 0,38
FR0010590950 LAZARD CREDIT FI "C" (EUR) ACC 22/10/2021 17.278,38 € -0,02
FR0000174310 LAZARD OBJECTIF SMALL CAPS "A" (EUR) INC 22/10/2021 970,41 € 0,46
FR0010259945 LAZARD ACTIONS EURO "A" (EUR) ACC 22/10/2021 855,45 € 0,56
LU0159201655 LO FUNDS CONVERTIBLE BOND "P" (EUR) ACC 22/10/2021 19,72 € -0,10
IE0033758917 MUZINICH ENHANCEDYIELD SHORT-TERM "A" (EURHDG) ACC 22/10/2021 171,40 € -0,01
IE0005315449 MUZINICH EUROPEYIELD "A" (EURHGD) ACC 22/10/2021 254,25 € -0,04
LU0700166217 NEXTAM PARTNERS VER CAPITAL CREDIT FUND "A" (EUR) ACC 22/10/2021 6,30 € 0,00
LU0097890064 NORDEA 1 GLOBAL STABLE EQUITY "BI" (EUR) ACC 22/10/2021 31,11 € 0,48
LU0772957808 NORDEA 1 NORTH AMERICAN ALL CAP "BI" (USD) ACC 22/10/2021 313,24 € 0,53
LU0475887740 NORDEA 1 US CORPORATE BOND "HBI" (EUR) ACC 22/10/2021 11,74 € -0,09
LU0772944145 NORDEA 1 EUROPEAN FINANCIAL DEBT "BP" ACC 22/10/2021 188,72 € 0,01
LU0828733419 EFFICIENCY GROWTH FUND EURO GLOBAL BOND "I" (EUR) ACC 22/10/2021 123,55 € 0,05
LU0312383663 PICTET CLEAN ENERGY "I" (EUR) ACC 22/10/2021 159,77 € 1,29
LU0167154417 PICTET EUR SHORT MID TERM BONDS "I" 22/10/2021 136,82 € -0,02
LU0726357444 PICTET EUR SHORT TERM HIGH YIELD "I" (EUR) ACC 22/10/2021 131,54 € -0,02
LU0303494743 PICTET GLOBAL BONDS "I" ACC 22/10/2021 187,52 € 0,25
LU0170991672 PICTET GLOBAL EMERGING DEBT "HI" (EUR) ACC 22/10/2021 288,53 € 0,09
LU0270904351 PICTET SECURITY "I" (EUR) ACC 22/10/2021 399,67 € 1,25
LU0104884605 PICTET WATER "I" (EUR) ACC 22/10/2021 577,41 € 1,30
IE0030759645 PIMCO EMERGING MARKETS BOND "I" ACC 22/10/2021 46,85 € -0,11
IE00B2R34Y72 PIMCO GLOBAL HIGH YIELD BOND "I" (EUR HDG) 22/10/2021 25,14 € -0,08
IE00B3KYRN47 PIMCO GLOBAL INVESTMENT GRADE CREDIT "A" (USD) ACC 22/10/2021 17,67 € -0,06
IE00BHZKQB61 PIMCO GLOBAL LOW DURATION REAL RETURN "I" (EURHDG) ACC 22/10/2021 10,59 € 0,00
IE00B639QZ24 PIMCO GLOBAL MULTI-ASSET "I" (EURHDG) ACC 22/10/2021 20,89 € 0,00
IE0033591748 PIMCO GLOBAL REAL RETURN "I" ACC 22/10/2021 22,05 € 0,32
AT0000A0EYE4 RAIFFEISEN EURO BOND "I" ACC 22/10/2021 177,76 € -0,13
AT0000A0EYD6 RAIFFEISEN EURO SHORT TERM BOND "I" ACC 22/10/2021 107,86 € -0,02
AT0000A0EY43 RAIFFEISEN EUROPEAN HIGHYIELD "I" ACC 22/10/2021 328,31 € -0,06
AT0000785340 RAIFFEISEN GLOBAL BOND "R" ACC 22/10/2021 107,62 € -0,11
AT0000A0KRU1 RAIFFEISEN GLOBAL FUNDAMENTAL BOND "I" ACC 22/10/2021 122,40 € -0,20
IE0002549487 RUSSELL INVESTMENTS EMERGING MARKET EQUITY "C" (EUR) ACC 22/10/2021 281,18 € 0,32
LU0188438542 SCHRODER ISF ASIAN EQUITY YIELD "C" ACC 22/10/2021 36,40 € 0,36
LU0106259988 SCHRODER ISF ASIAN OPPORTUNITIES "C" ACC 22/10/2021 28,94 € 0,42
LU0106820292 SCHRODER ISF EMERGING EUROPE "C" ACC 22/10/2021 54,75 € 0,39
LU0248177411 SCHRODER ISF EMERGING MARKETS "C" (EUR) ACC 22/10/2021 21,00 € 0,57
LU0106235889 SCHRODER ISF EURO BOND "C" ACC 22/10/2021 24,47 € -0,12
LU0995119822 SCHRODER ISF EURO CREDIT CONVICTION "C" ACC 22/10/2021 144,76 € -0,06
LU0106235459 SCHRODER ISF EURO EQUITY "C" ACC 22/10/2021 56,36 € 1,37
LU0106236184 SCHRODER ISF EURO GOVERNMENT BOND "C" ACC 22/10/2021 13,64 € -0,15
LU0849400030 SCHRODER ISF EURO HIGH YIELD "C" (EUR) ACC 22/10/2021 167,88 € -0,07
LU0106234999 SCHRODER ISF EURO SHORT TERM BOND "C" ACC 22/10/2021 7,69 € -0,13
LU0106238552 SCHRODER ISF EUROPEAN SMALLER COMPANIES "C" ACC 22/10/2021 61,74 € -0,11
LU0161305759 SCHRODER ISF EUROPEAN VALUE "C" (EUR) ACC 22/10/2021 81,87 € 0,37
LU0562314715 SCHRODER ISF FRONTIER MARKETS EQUITY "C" (USD) ACC 22/10/2021 175,44 € -0,22
LU0180781394 SCHRODER ISF GLOBAL INFLATION LINKED BOND "C"(EUR)ACC 22/10/2021 38,08 € 0,77
LU0224509561 SCHRODER ISF GLOBAL CITIES REAL ESTATE "C" (EURHDG) ACC 22/10/2021 202,68 € 0,03
LU0106239527 SCHRODER ISF ITALIAN EQUITY "C" ACC 22/10/2021 58,02 € 0,29
LU0236738356 SCHRODER ISF JAPANESE EQUITY "C" (EUR HDG) ACC 22/10/2021 148,47 € 0,79
LU0270818197 SCHRODER ISF JAPANESE OPPORTUNITIES "A" ACC 22/10/2021 16,09 € 0,94
LU0106261026 SCHRODER ISF US DOLLAR BOND "C" ACC 22/10/2021 24,09 € -0,25
LU0271484684 SCHRODER ISF US LARGE CAP 22/10/2021 331,59 € 0,31
LU0248177502 SCHRODER ISF US SMALL & MID-CAP EQUITY "C" (EUR) ACC 22/10/2021 433,31 € 0,59
LU0933606302 OYSTER EUROPEAN OPPORTUNITIES 'I EUR PR' (EUR) ACC 22/10/2021 1.868,13 € 0,30
LU1158909215 OYSTER JAPAN OPPORTUNITIES "I" (EURHDG) ACC 22/10/2021 1.236,32 € -0,38
LU0335769435 OYSTER MULTI-ASSET DIVERSIFIED 'I EUR PF' (EUR) ACC 22/10/2021 1.525,02 € -0,05
LU0382933116 T ROWE PRICE GLOBAL GROWTH EQUITY "I" ACC 22/10/2021 69,29 € 0,06
LU0272423913 T ROWE PRICE GLOBAL NATURAL RESOURCES EQUITY "I" ACC 22/10/2021 12,99 € 0,15
LU0133088293 T ROWE PRICE US BLUE CHIP EQUITY 22/10/2021 25,90 € -0,69
LU0362282021 UBI SICAV ASIA PACIFIC EQUITY "I" ACC 22/10/2021 10,08 € 0,40
LU0362282294 UBI SICAV EMERGING MARKETS EQUITY "I" ACC 22/10/2021 8,86 € 0,11
LU0476065601 UBI SICAV EURO CORPORATE SHORT TERM "I" ACC 22/10/2021 5,92 € 0,00
LU0362281643 UBI SICAV EURO EQUITY "I" ACC 22/10/2021 9,70 € 0,52
LU0476065510 UBI SICAV GLOBAL CORPORATE BOND "R" ACC 22/10/2021 6,64 € 0,15
LU0393873525 UBI SICAV HIGH YIELD BOND "I" ACC 22/10/2021 13,22 € -0,08
LU1589371662 UBI SICAV STRATEGIC BOND I 22/10/2021 4,98 € 0,00
LU0408846615 JPM GLOBAL CORPORATE BOND "C" (USD) ACC 22/10/2021 138,14 € -0,11
LU0217389567 JPM US AGGREGATE BOND "C" ACC 22/10/2021 17,07 € -0,18
LU0129491972 JPM LATIN AMERICA EQUITY "C" ACC 22/10/2021 26,02 € -1,74
LU1582985385 M&G (LUX) INCOME ALLOCATION "C" (EUR) ACC 22/10/2021 11,39 € -0,09
LU1582988488 M&G (LUX) DYNAMIC ALLOCATION "C" (EUR) ACC 22/10/2021 10,50 € 0,19
FR0010149112 Carmignac Euro-Entrepreneurs 22/10/2021 510,43 € 0,39
FR0013299187 Dorval Convictions N 22/10/2021 94,26 € 0,33
IT0004353360 Soprarno Inflazione Più 22/10/2021 7,69 € -0,13
IT0004353444 Soprarno Relative Value 22/10/2021 8,91 € 0,11
IT0004718638 AcomeA Breve Termine 22/10/2021 17,19 € -0,06
IT0004718869 AcomeA Europa 22/10/2021 20,50 € 0,00
LU0264598268 JH H Pan European Alpha Fund 22/10/2021 20,61 € 0,19
LU0490769915 JH G United Kingdom Absolute Return Fund 22/10/2021 7,57 € 0,13
LU0587803247 JPM GLOBAL STRATEGIC BOND "C PERF" (EURHDG) ACC 22/10/2021 90,37 € -0,14
LU0736560011 AB Select Absolute Alpha Portfolio 22/10/2021 25,37 € 0,08
LU1001748398 JPM EUROPE EQUITY ABSOLUTE ALPHA "C PERF" (EUR) ACC 22/10/2021 126,34 € 0,37
LU1377852261 TCW Funds - MetWest Unconstrained Bond Fund IEHE 22/10/2021 1.092,92 € -0,01
LU1775950394 INVESCO ASIAN EQUITY "C" INC 22/10/2021 10,99 € 0,00
LU1829330403 THREADNEEDLE (LUX) - PAN EUROPEAN SMALLER COMPANIE "8E" (EUR) ACC 22/10/2021 14,52 € 0,35
LU1775980037 INVESCO UK EQUITY "C" INC 22/10/2021 11,44 € 0,00
Lu1670720629 M&G GLOBAL MACRO BOND "C" (EURHDG) ACC 22/10/2021 12,18 € -0,08
LU1670629895 M&G EUROPEAN CORPORATE BOND "C" (EUR) ACC 22/10/2021 21,13 € -0,14
LU0210531637 Jpm Europe Small Cap      22/10/2021 42,64 € 0,71
LU1088207649 UBI Sicav High Yield Bond 22/10/2021 5,79 € 0,00
LU1670724704 M&G (LUX) OPTIMAL INCOME "C" (EUR) ACC 22/10/2021 10,98 € 0,00
FR0011261197 R-co Valor C EUR  Rothschild & Co 22/10/2021 2.557,13 € -0,02
IE00B23Z8X43 Legg Mason Brandywine Fixed Income Fund 22/10/2021 150,42 € -0,12
IE00B81TMV64 Algebris Financial Credit Fund I 22/10/2021 193,79 € 0,57
LU0094557526 MFS Meridian Funds EUROPEAN RESEARCH 22/10/2021 47,77 € -0,17
LU0144746764 Candriam Bonds Emerging Market (Gov Hard ccy)  22/10/2021 2.580,44 € -0,10
LU0209860427 RobecoSAM Europ. Sust Equity 22/10/2021 262,87 € 0,43
LU0219418836 MFS Meridian Global Total Return Fund 22/10/2021 24,56 € 0,12
LU0231484808 Aberdeen Standard European Equity Ex UK 22/10/2021 21,90 € 1,25
LU0255980830 Pictet Euroland Index 22/10/2021 203,05 € 0,62
LU0362282377 Pramerica Global Equity 22/10/2021 14,98 € -0,13
LU0368678339 Fidelity Pacific 22/10/2021 30,84 € 0,46
LU0614216538 Pramerica Global Dynamic Allocation 22/10/2021 8,54 € 0,23
LU0875837915 Robeco Asia-Pacific Equities 22/10/2021 157,12 € -0,23
LU0956005655 Parvest Equity Best Selection World 22/10/2021 152,84 € -0,14
LU1203833881 Mirabaud Equity Global  Focus ESG 22/10/2021 330,45 € 0,40
LU1278659575 Blubay Emerging Market Unconstrained Bond 22/10/2021 131,51 € -0,16
LU1366139522 Wellington Global quality growth 22/10/2021 20,99 € 0,19
LU1370930734 BNPP L1 Equity Europe DEFI EUR 16/09/2019 127,90 € 0,00
LU1382644083 T.Rowe Emerging Market Equity 22/10/2021 18,61 € 0,54
LU1460782227 HSBC Gif Multi Asset Style Factors 22/10/2021 10,64 € 0,00
LU1502282806 Candriam Equities L Robotics & Innovative Technology 22/10/2021 3.526,60 € -0,50
LU1672149751 Wellington Emerging Markets Research Equity 22/10/2021 12,98 € 0,39
LU1833299875 Pramerica Absolute Return Solution 22/10/2021 5,01 € 0,00
LU1882474239 Amundi Funds Euro Government Bond 22/10/2021 5,12 € 0,00
LU1883307206 Amundi Funds European Equity Small Cap 22/10/2021 10,79 € 0,28
LU1883315134 Amundi Funds European Equity Value 22/10/2021 9,01 € 0,11
LU1883854868 Amundi  Funds Pioneer US Equity Fundamental Growth 22/10/2021 33,69 € -0,27
LU0875157884 ISHARES GLB GOV BD INDEX (LU) "D2" (EUR) 22/10/2021 121,76 € 0,04
FR0010674978 LA FRANCAISE SUB DEBT "C" (EUR) 22/10/2021 2.400,94 € -0,08
LU0914732671 MIROVA EUROPE ENVIR EQUITY "I" (EUR) ACC 22/10/2021 26.189,66 € 0,58
LU1848748734 TCW FUNDS GLOBAL ARTIFICIAL "IU" (USD) ACC 22/10/2021 1.753,47 € -1,41
LU1589836722 THREADNEEDLE (LUX) - EUROPEAN SOCIAL BOND FUND "IE" (EUR) ACC 22/10/2021 10,69 € 0,00
LU0093503737 BGF ESG MULTI-ASSET "E2" (EUR) 22/10/2021 17,68 € 0,45
LU1917164854 BGF NEXT GENERATION T "D2" (EUR) 22/10/2021 23,89 € 0,55
LU1819949246 BNP PARIBAS SUSTAINA "I" (EUR) 22/10/2021 103.529,90 € -0,02
LU0815117725 CIF CG EM TOTAL OPPS "Z" (EUR) ACC 22/10/2021 14,13 € -0,07
IE0031080868 ISHARES EU GOV BD IND (IE) 'I' (EU) ACC 22/10/2021 24,68 € 0,04
LU1984711785 Janus Henderson Horizon Global Sustainable Equity Fund IU2 EUR Acc 22/10/2021 17,82 € 1,19
LU0210526637 JPM CHINA "A" ACC 22/10/2021 62,26 € 1,27
FR0000003998 LAZARD EQUITY SRI "C" (EUR) ACC 22/10/2021 2.173,84 € 0,56
LU1408525894 ROBECO SUSTAINABLE GL "IL" (EUR) 22/10/2021 223,45 € 0,19
LU0503372780 ROBECOSAM EURO SDG CR "IH" (EURHDG) 22/10/2021 146,05 € 0,00
LU1365052627 NN (L) GREEN BOND "I" (EUR) ACC 22/10/2021 5.665,52 € 0,07
IT0004718653 ACOMEA EUROBBLIGAZIONARIO "A2" 22/10/2021 21,35 € 0,00
LU1173936078 ALLIANZ EURO CREDIT S "RT" (EUR) -  - EUR 22/10/2021 119,03 € -0,17
LU1173935773 ALLIANZ GLOBAL SUSTAI "RT" (EUR) 22/10/2021 200,51 € 0,61
LU1613213971 CANDRIAM EQ L ROBOTIC "I" (EUR) 22/10/2021 3.223,93 € -0,34
LU1006079997 CIF GB ALLOCATION "Z" (EUR) 22/10/2021 19,72 € 0,25
LU1808853318 FIDELITY FUNDS - SUST "Y" (EUR) A 22/10/2021 14,75 € 0,07

*La Var % è riferita al NAV precedente